This is the latest recevied weather packets stored in our database for station/object DH1NAI-6. If no packets are shown the sender has not sent any weather packets the latest 1 day(s).
| Time | Temp. | Humidity | Pressure | Rain* | Wind** | Luminosity | Snow |
|---|---|---|---|---|---|---|---|
| 1777967852 | 14.44° C | 90% | 1007.7 hPa | 0 mm | 0.89 m/s, 151° | 70 W/m² | - |
| 1777967250 | 14.44° C | 90% | 1007.5 hPa | 0 mm | 1.34 m/s, 170° | 69 W/m² | - |
| 1777966641 | 13.89° C | 91% | 1007.6 hPa | 0 mm | 1.34 m/s, 124° | 56 W/m² | - |
| 1777966017 | 13.89° C | 93% | 1007.7 hPa | 0 mm | 0.45 m/s, 122° | 65 W/m² | - |
| 1777965393 | 13.33° C | 95% | 1007.6 hPa | 0 mm | 0 m/s | 52 W/m² | - |
| 1777964785 | 13.33° C | 95% | 1007.4 hPa | 0 mm | 0.89 m/s, 140° | 41 W/m² | - |
| 1777964178 | 12.78° C | 96% | 1007.5 hPa | 0 mm | 0.45 m/s, 164° | 44 W/m² | - |
| 1777963569 | 12.78° C | 97% | 1007.6 hPa | 0 mm | 1.34 m/s, 149° | 54 W/m² | - |
| 1777962962 | 12.22° C | 98% | 1007.6 hPa | 0 mm | 1.34 m/s, 158° | 57 W/m² | - |
| 1777962358 | 11.67° C | 99% | 1007.5 hPa | 0 mm | 0.45 m/s, 160° | 48 W/m² | - |
| 1777961746 | 11.67° C | 99% | 1007.7 hPa | 0 mm | 0.45 m/s, 177° | 44 W/m² | - |
| 1777961132 | 11.67° C | 99% | 1007.7 hPa | 0 mm | 0.45 m/s, 146° | 34 W/m² | - |
| 1777960530 | 11.11° C | 99% | 1007.9 hPa | 0 mm | 0.45 m/s, 157° | 26 W/m² | - |
| 1777959921 | 11.11° C | 99% | 1007.8 hPa | 0 mm | 0 m/s | 14 W/m² | - |
| 1777959297 | 11.11° C | 99% | 1007.6 hPa | 0 mm | 0.45 m/s, 163° | 8 W/m² | - |
| 1777958673 | 11.11° C | 99% | 1007.8 hPa | 0 mm | 0.45 m/s, 166° | 7 W/m² | - |
| 1777958065 | 11.11° C | 99% | 1007.6 hPa | 0 mm | 1.34 m/s, 152° | 4 W/m² | - |
| 1777957458 | 11.11° C | 99% | 1007.7 hPa | 0 mm | 0.89 m/s, 148° | 3 W/m² | - |
| 1777956849 | 11.11° C | 99% | 1007.8 hPa | 1.02 mm | 0.89 m/s, 139° | 3 W/m² | - |
| 1777956242 | 11.11° C | 99% | 1007.8 hPa | 1.02 mm | 0.89 m/s, 139° | 4 W/m² | - |
| 1777955633 | 11.11° C | 99% | 1007.7 hPa | 1.02 mm | 0.89 m/s, 139° | 1 W/m² | - |
| 1777955026 | 11.11° C | 99% | 1008.2 hPa | 1.02 mm | 0.45 m/s, 144° | 1 W/m² | - |
| 1777954412 | 11.11° C | 99% | 1008.1 hPa | 1.02 mm | 0 m/s | 0 W/m² | - |
| 1777953810 | 11.11° C | 99% | 1008.3 hPa | 0 mm | 0.45 m/s, 175° | 0 W/m² | - |
| 1777953201 | 11.11° C | 99% | 1008.3 hPa | 1.02 mm | 0.45 m/s, 165° | 0 W/m² | - |
* Rain latest hour (hover to see other rain measurements)
** Current wind speed in m/s (hover to see current wind gust speed)